www.pogodaiklimat.ru

Погода и климат >> Архив погоды >> Россия >> Коми >> Помоздино


ПОГОДА в Помоздино

  • Прогноз погоды в Помоздино
  • Монитор погоды в Помоздино

АРХИВ ПОГОДЫ в Помоздино

Время (UTC), дата Ветер
(напр.,м/с)
 
Видим.   Явления Облачность Т
(С)
Тd
(С)
f
(%)
Тe
(С)
Тes
(С)
Комфортность P
(гПа)
Po
(гПа)
Тmin
(С)
Tmax
(С)
R
(мм)
R24
(мм)
S
(см)
21 11.09 СЗ 1 20 км 3/3 1000 м
[Cb calv]
+12.4 +11.7 95 +12 +12 1024.2 1005.6
00 12.09 ЮЗ 2 500 м туман ясно +9.0 +9.0 100 +7 +7 1025.0 1006.1
03 12.09 штиль 0 1000 м туман 4/4 1500 м
[Sc]
+7.8 +7.6 99 +7 +7 1024.9 1006.0 +6.8 0.0
06 12.09 Ю 2 20 км {туман} 10/1 1000 м
[Sc Ac trans Ci fib]
+15.3 +13.5 89 +15 +17 1023.6 1005.3
09 12.09 ЮЗ 3 20 км 10/0
[Ac cast Cc]
+19.3 +14.3 73 +21 +24 комфорт 1022.0 1003.9
12 12.09 ЮЗ 4 20 км 10/3 1000 м
[Cu med, cong Ac trans Ci fib]
+21.0 +13.1 61 +24 +24 комфорт 1020.0 1002.0
15 12.09 штиль 0 20 км 10/0
[As trans Cs]
+18.0 +13.4 74 +18 +18 1019.0 1000.9 +21.5
18 12.09 ЮЗ 2 20 км 8/0
[As trans Ci fib]
+14.9 +12.9 88 +15 +15 1018.0 999.6
21 12.09 ЮЗ 3 20 км {дождь} 6/0
[As trans]
+14.7 +12.5 87 +14 +14 1016.8 998.4
00 13.09 ЮЗ 3 20 км {дождь} 4/0
[Ac As]
+13.1 +11.7 91 +12 +12 1016.5 998.0
03 13.09 ЮЗ 3 20 км 8/0
[Ac As Ci fib]
+12.4 +10.5 88 +11 +11 1014.5 996.1 +12.5 0.0
06 13.09 ЮЗ 3 20 км 3/1 1000 м
[Cu med, cong Ac cast]
+16.6 +10.2 66 +16 +19 1013.8 995.6
09 13.09 ЮЗ 3 20 км 9/1 1000 м
[Cu hum Ac trans]
+18.9 +8.0 49 +20 +22 1012.5 994.5
12 13.09 1 10 км слаб. ливневой дождь 10/10 480 м
[Cb cap]
+15.5 +14.1 91 +16 +16 1011.0 992.8
15 13.09 Ю 1 10 км {ливн. осадки} 10/1 1000 м
[Sc diur, vesp Cc]
+14.5 +13.8 96 +15 +15 1010.0 991.9 +20.2 4
18 13.09 ЮЗ 2 20 км {ливн. осадки, туман} 10/5 1000 м
[Sc Ac trans Ci fib]
+13.0 +12.1 94 +12 +12 1009.6 991.3
21 13.09 ЮЗ 1 20 км 10/0
[Ac trans Ci fib]
+11.4 +10.9 97 +11 +11 1009.1 990.6
00 14.09 ЮЗ 1 20 км 10/0
[Ac As Cs]
+10.4 +10.0 97 +10 +10 1008.3 989.8
03 14.09 1 10 км местами туман поземный 10/0
[Ac lent Ci fib]
+8.9 +8.6 98 +8 +8 1007.6 989.0 +8.9
06 14.09 Ю 1 20 км {туман} 9/3 1000 м
[Cu med, cong Ac cast]
+15.5 +12.6 83 +16 +17 1006.0 987.9
09 14.09 Ю 2 20 км 9/4 600 м
[Cb calv Ac cast Cc]
+17.9 +12.1 69 +18 +20 1004.4 986.5
12 14.09 Ю 2 20 км 9/3 1000 м
[Cu hum Ac As Cc]
+18.9 +11.0 60 +20 +21 1002.8 984.9
15 14.09 ЮВ 2 10 км слаб. ливневой дождь 10/8 300 м
[Cb cap Ac As]
+14.3 +13.2 93 +14 +14 1001.0 982.9 +19.6 1
18 14.09 ЮЗ 5-10
{11}
10 км слаб. ливневой дождь 10/6 300 м
[Cb cap Ac As]
+13.6 +10.5 82 +12 +12 999.0 981.0
21 14.09 ЮЗ 6-12
{14}
20 км {ливн. осадки} 10/10 1200 м
[Sc]
+11.6 +4.8 63 +9 +9 1000.6 982.3
00 15.09 Ю 5
{12}
20 км {ливн. осадки} 10/10 1170 м
[Sc]
+10.1 +4.8 70 +7 +7 1000.7 982.4
03 15.09 ЮЗ 4 20 км 8/8 700 м
[Sc]
+7.9 +5.0 82 +5 +5 1001.3 982.7 +7.9 0.4
06 15.09 ЮЗ 4
{10}
20 км 10/10 930 м
[Sc]
+8.9 +3.8 70 +6 +6 1001.5 983.0
09 15.09 ЮЗ 5
{11}
20 км 10/10 930 м
[Sc]
+9.8 +3.0 63 +7 +7 1001.2 982.8
12 15.09 Ю 4
{11}
20 км 8/8 600 м
[Cb calv]
+10.3 +3.2 61 +8 +8 1000.8 982.5
15 15.09 Ю 4
{10}
20 км {ливн. осадки} 9/9 1470 м
[Cb calv]
+9.2 +3.4 67 +7 +7 1000.1 981.7 +11.0 0.0
18 15.09 Ю 4
{10}
20 км {ливн. осадки} 4/4 1500 м
[Sc]
+7.8 +3.4 74 +5 +5 999.2 980.7
21 15.09 Ю 4 20 км 8/0
[Ac trans]
+5.7 +3.8 88 +2 +2 998.2 979.5
00 16.09 ЮЗ 4
{10}
20 км 10/10 630 м
[Sc]
+5.8 +3.7 86 +2 +2 997.7 979.0
03 16.09 ЮЗ 3 20 км 9/8 480 м
[Sc Ac As Cc]
+5.5 +3.8 89 +2 +2 997.5 978.8 +5.5
06 16.09 Ю 4 20 км 10/0
[Cc]
+8.2 +5.1 81 +5 +7 996.4 978.0
09 16.09 ЮЗ 5
{11}
20 км 9/8 600 м
[Sc diur, vesp Ci fib]
+10.4 +2.1 56 +8 +8 995.1 976.9
12 16.09 Ю 4
{12}
20 км 9/9 1000 м
[Cb cap]
+10.8 +0.2 48 +9 +9 994.2 976.0
15 16.09 Ю 3 20 км в посл. час ливневой дождь 10/10 1000 м
[Cb calv]
+8.4 +3.8 73 +6 +6 993.4 975.1 +12.3 0.0
18 16.09 ЮВ 2 10 км слаб. ливневой дождь 10/10 900 м
[Cb calv]
+6.8 +5.5 91 +4 +4 992.0 973.6
21 16.09 Ю 1 10 км слаб. ливневой дождь 10/10 600 м
[Cb calv]
+6.6 +6.2 97 +5 +5 990.4 972.1
00 17.09 ЮВ 1 10 км слаб. ливневой дождь 10/10 300 м
[Cb calv]
+6.6 +6.2 97 +5 +5 989.7 971.4
03 17.09 Ю 2 20 км {ливн. осадки} 10/10 300 м
[Cb calv]
+6.6 +6.4 99 +4 +4 989.6 +6.5 0.5
06 17.09 Ю 3 20 км в посл. час ливневой дождь 10/10 330 м
[Cb calv]
+8.1 +6.4 89 +5 +5 989.6 971.4
09 17.09 ЮЗ 2 10 км слаб. ливневой дождь 9/9 480 м
[Cb calv]
+9.9 +6.2 78 +8 +9 989.4 971.3
12 17.09 Ю 3 10 км слаб. ливневой дождь 9/8 300 м
[Cb calv Ac As]
+9.5 +6.5 82 +7 +7 990.2 972.0
15 17.09 штиль 0 10 км в посл. час ливневой дождь 9/8 600 м
[Cb cap Ac cast]
+8.6 +8.0 96 +8 +8 990.6 972.4 +10.6 3
18 17.09 штиль 0 20 км {ливн. осадки} 9/9 1500 м
[Sc]
+7.1 +6.8 98 +6 +6 990.4 972.1
21 17.09 1 20 км 10/10 420 м
[Sc]
+7.0 +6.8 99 +6 +6 989.8 971.5
00 18.09 Ю 1 10 км слаб. ливневой дождь 10/10 330 м
[Cb cap]
+7.2 +7.0 99 +6 +6 989.5 971.2
03 18.09 Ю 1 2000 м дымка {ливн. осадки} 10/10 120 м
[St]
+7.1 +7.1 100 +6 +6 989.7 971.4 +6.9 3
06 18.09 ЮЗ 2 10 км слаб. ливневой дождь 9/9 360 м
[Cb calv]
+8.7 +7.7 93 +7 +7 990.2 972.0
09 18.09 З 3 10 км слаб. ливневой дождь 9/9 540 м
[Cb cap]
+9.8 +7.6 86 +8 +8 991.3 973.0
12 18.09 20 км в посл. час ливневой дождь н/о +9.6 +6.4 80 +8 +8 993.2 974.9
15 18.09 З 1 20 км в посл. час ливневой дождь 9/9 600 м
[Cb calv]
+7.3 +6.7 96 +6 +6 994.7 976.3 +10.1 1
18 18.09 1 20 км {ливн. осадки} 10/10 1440 м
[Sc]
+6.5 +6.1 97 +5 +5 995.6 977.2

 

Местоположение метеостанции Помоздино (Коми, Россия): широта 62.18 долгота 54.20 высота над уровнем моря 154 м.

В архиве по умолчанию представлена погода в Помоздино за последнюю неделю. Архивные данные за месяц целиком и за предыдущие месяцы, начиная с января 2011 года, Вы можете получить, выбрав интересующий диапазон дат из раскрывающегося списка и нажав кнопку "Ввод!".


*Определитесь, кто Вы:
робот инопланетянин человек

Внимание! Время в таблицах - всемирное. Для получения местного времени необходимо прибавить поправку, которая равна 3 ч.

Смотрите также архив погоды в соседних городах и на ближайших метеорологических станциях:

Погода в Усть-Куломе (Коми, Россия) (62 км)
Погода в Луни (Коми, Россия) (89 км)
Погода в Троицко-Печорском (Коми, Россия) (118 км)
Погода в Якше (Коми, Россия) (145 км)
Погода в Ухте (Коми, Россия) (154 км)
Погода в Сыктывкаре (Коми, Россия) (187 км)
Погода в Весляне (Коми, Россия) (191 км)
Погода в Усть-Выми (Коми, Россия) (196 км)
Погода в Усть-Черной (Пермский край, Россия) (208 км)
Погода в Ныробе (Пермский край, Россия) (210 км)

Пояснения к столбцам:

Ветер - указаны скорость ветра в м/с - средняя за 10 мин, порывы в срок и между сроками (в фигурных скобках) и направление, откуда дует ветер: С - северный, СВ - северо-восточный, В - восточный, ЮВ - юго-восточный, Ю - южный, ЮЗ - юго-западный, З - западный, СЗ - северо-западный.
Видимость - горизонтальная дальность видимости в метрах или километрах. При видимости от 1 до 10 км при отсутствии осадков обычно наблюдается дымка, при ухудшении видимости до 1 км и менее - туман. В сухую погоду видимость может ухудшаться дымом, пылью или мглою.
Явления - указаны атмосферные явления, наблюдавшиеся в срок или в последний час перед сроком; фигурными скобками обозначены явления, наблюдавшиеся между сроками (за 1-3 часа до срока); квадратными скобками обозначены град или гололедные отложения с указанием их диаметра в мм.
Облачность - указаны через наклонную черту общая и нижняя облачность в баллах и высота нижней границы облаков в метрах; квадратными скобками обозначены формы облаков: Ci - перистые, Cs - перисто-слоистые, Cc - перисто-кучевые, Ac - высококучевые, As - высокослоистые, Sc - слоисто-кучевые, Ns - слоисто-дождевые, Cu - кучевые, Cb - кучево-дождевые. Подробнее классификацию облаков см. в Атласе облаков (PDF).
T - Температура воздуха - температура, измеренная на высоте 2 м над землей.
Td - Температура точки росы - температура, при понижении до которой содержащийся в воздухе водяной пар достигнет насыщения.
f - Относительная влажность воздуха - влажноcть воздуха, измеренная на высоте 2 м над землей.
Te - Эффективная температура - температура, которую ощущает одетый по сезону человек в тени. Характеристика душности погоды. При расчете учитывается влияние влажности воздуха и скорости ветра на теплоощущения человека.
Tes - Эффективная температура на солнце - температура, которую ощущает человек, с поправкой на солнечный нагрев. Характеристика знойности погоды. Зависит от высоты солнца над горизонтом, облачности и скорости ветра. Ночью, в пасмурную погоду, а также при ветре 12 м/с и более поправка равна нулю.
P - Атмосферное давление - приведенное к уровню моря атмосферное давление.
Po - Атмосферное давление - измеренное на уровне метеостанции атмосферное давление.
Tmin - Минимальная температура - минимум температуры воздуха на высоте 2 м над землей.
Tmax - Максимальная температура - максимум температуры воздуха на высоте 2 м над землей.
R - Количество осадков - Количество выпавших осадков за период времени, мм. При наведении курсора мыши на число - период времени, за который выпало указанное количество осадков.
R24 - Количество осадков - Количество выпавших осадков за 24 часа, мм.
S - Снежный покров - Высота снежного покрова, см. При наведении курсора мыши на число - состояние снежного покрова и степень покрытия местности в баллах.